Torna al catalogo

COSMOS 1275 DEB

AttivoPO
NORAD 42113·DEBRIS·🇷🇺 Russia

Lanciato Jun 4, 1981 da Plesetsk Cosmodrome

Loading…

Prossimi Passaggi (prossime 24 ore)

TLE

AggiornatoSource: Space-Track

Epoca: Sep 13, 2026, 05:25 UTC

1 42113U 81053PZ  26256.22581801  .00001099  00000-0  10069-2 0  9993
2 42113  82.7502 168.9046 0194065  81.9943  69.8515 13.73989575640089

Traccia COSMOS 1275 DEB in tempo reale con AllMySat

Download on the App Store